[[{"header":{"parameterUnit":"m.s-1","parameterCategory":1,"la1":30.2991,"la2":30.254,"lo1":-89.0895,"lo2":-89.0444,"dy":0.0017,"dx":0.0017,"nx":28,"ny":28,"refTime":"2025-11-09T09:00:00:Z","depth":0,"parameterNumber":2,"parameterNumberName":"U-component_of_WINDS"},"data":[0,0,0,0,0,0,0,0,0,0,0,0,0,0,0,0,0,0,0,0,0,0,0,0,0,0,0,0,0,0,0,0,0,0,0,0,0,0,0,0,0,0,0,0,0,0,0,0,0,0,0,0,0,0,0,0,0,0,2.1729,2.1729,0,2.1763,2.1763,2.1763,2.1684,2.1682,2.1679,2.1677,2.1714,2.1717,2.1721,0,0,0,0,0,0,0,0,0,0,0,0,0,2.16,2.1603,2.1729,2.1729,2.173,2.1763,2.1763,2.1763,2.1685,2.1682,2.1679,2.1676,2.1713,2.1717,2.1721,0,0,0,0,0,0,0,0,0,0,0,0,0,2.1647,2.1604,2.1729,2.1694,2.1692,2.1762,2.1763,2.1764,2.1686,2.1682,2.1678,2.1674,2.1712,2.1717,2.1721,2.1828,0,0,2.1737,2.1739,0,0,0,0,0,0,0,0,2.1645,2.1652,2.1699,2.1697,2.1694,2.1715,2.1731,2.1785,2.1686,2.1688,2.1677,2.1673,2.1718,2.1722,2.1737,2.183,2.1831,2.1737,2.174,2.1742,2.1744,0,0,0,0,0,0,0,2.1641,2.165,2.1742,2.17,2.1697,2.1678,2.1681,2.1741,2.1724,2.1688,2.1682,2.1687,2.1716,2.1732,2.1737,2.1832,2.1737,2.1741,2.1745,2.1747,2.2015,2.2019,0,0,0,0,0,0,2.1642,2.1648,2.1741,2.1743,2.1659,2.1684,2.1687,2.1712,2.1723,2.1721,2.169,2.1683,2.1725,2.1731,2.1738,2.1864,2.1742,2.1747,2.175,2.2011,2.2016,2.2021,0,0,0,0,0,0,2.164,2.1651,2.174,2.1694,2.1704,2.169,2.172,2.1715,2.1731,2.1725,2.1721,2.171,2.1723,2.1731,2.1806,2.1864,2.1749,2.1754,2.2006,2.2013,2.2018,2.2117,0,0,0,0,0,0,2.1636,2.1651,2.169,2.1696,2.1707,2.1807,2.1723,2.1718,2.174,2.1731,2.1742,2.1741,2.172,2.1799,2.1811,2.1869,2.1758,2.2001,2.2009,2.2016,2.2108,2.2125,2.214,0,0,0,0,0,2.1632,2.1717,2.1693,2.1704,2.1756,2.181,2.1817,2.1791,2.1745,2.1785,2.1781,2.174,2.1856,2.1808,2.182,2.1881,2.1997,2.2007,2.2016,2.2101,2.2122,2.214,0,0,0,0,0,0,2.1719,2.1717,2.169,2.1779,2.1795,2.1797,2.1847,2.1814,2.1844,2.1835,2.1803,2.1806,2.1888,2.1891,2.1838,2.1985,2.1919,2.1931,2.1979,2.1999,2.2015,2.2012,2.1762,0,0,0,0,0,2.1749,2.1792,2.1788,2.1867,2.1877,2.1861,2.1884,2.1862,2.1878,2.1885,2.1886,2.1905,2.1945,2.1972,2.2009,2.2108,2.211,2.2156,2.2172,2.2185,2.2196,2.2251,2.2271,2.2051,2.2051,2.2051,0,0,2.181,2.1814,2.1844,2.1885,2.1895,2.1942,2.1867,2.192,2.1955,2.1893,2.1964,2.1966,2.1984,2.2073,2.2111,2.2078,2.2258,2.2197,2.2208,2.2212,2.2262,2.2283,2.2302,2.2057,2.2056,2.2055,0,0,2.1947,2.1954,2.2021,2.2033,2.2049,2.2038,2.2054,2.2061,2.206,2.213,2.2086,2.2127,2.2197,2.2212,2.2229,2.2373,2.2337,2.2386,2.2469,2.2523,2.254,2.2555,2.2607,2.2626,2.2397,2.2397,2.2397,0,2.2021,2.2089,2.2059,2.2115,2.2135,2.2082,2.215,2.2163,2.2191,2.2207,2.2169,2.2257,2.2265,2.2356,2.2391,2.2407,2.2425,2.2384,2.254,2.2555,2.2568,2.2618,2.2637,2.2403,2.2402,2.2402,2.2401,0,2.2181,2.2229,2.2281,2.2309,2.2335,2.2397,2.2378,2.2408,2.2385,2.2378,2.2452,2.246,2.2498,2.2518,2.2496,2.2607,2.2586,2.2545,2.2478,2.2596,2.2642,2.266,2.2411,2.2409,2.2407,2.2406,0,0,2.2372,2.2383,2.2403,2.2415,2.243,2.2467,2.2528,2.2564,2.2591,2.2613,2.2663,2.2724,2.2686,2.2706,2.2685,2.2732,2.2846,2.2685,2.2685,2.2715,2.297,2.3002,2.3024,2.2823,2.2826,2.2829,2.2969,0,2.2507,2.2609,2.2585,2.2687,2.2732,2.2682,2.2735,2.2751,2.2746,2.2785,2.278,2.2824,2.277,2.2782,2.2826,2.2823,2.2897,2.2813,2.2871,2.2873,2.2868,2.3048,2.3081,2.3212,2.2987,2.299,2.2992,0,2.2678,2.2705,2.2812,2.282,2.2838,2.2886,2.2918,2.2955,2.2972,2.2966,2.2989,2.2959,2.302,2.2953,2.3038,2.2981,2.3003,2.3006,2.301,2.3015,2.294,2.3058,2.3253,2.3274,2.302,2.3017,2.3015,0,2.2807,2.2871,2.2943,2.2956,2.2967,2.3002,2.3009,2.3022,2.3046,2.3075,2.309,2.3126,2.3146,2.3175,2.3157,2.3109,2.3245,2.3176,2.3243,2.3243,2.3273,2.3272,2.3476,2.3287,2.3287,2.3287,2.3286,0,2.2961,2.3028,2.3002,2.3046,2.3121,2.3093,2.3168,2.3169,2.3181,2.3226,2.3186,2.3229,2.3202,2.3244,2.323,2.3303,2.3312,2.3309,2.3305,2.3313,2.3314,2.3327,2.3318,2.3292,2.3291,2.329,2.3289,0,2.3118,2.3103,2.3178,2.3183,2.3186,2.3241,2.3246,2.3288,2.3281,2.3338,2.335,2.334,2.3387,2.3372,2.3422,2.3413,2.3506,2.3489,2.35,2.3496,2.3563,2.3558,2.3784,2.3813,2.3605,2.3607,2.3609,0,2.3216,2.3267,2.3278,2.3304,2.3314,2.3357,2.3382,2.3357,2.3384,2.3408,2.3448,2.3491,2.3524,2.3602,2.3599,2.3638,2.3623,2.37,2.3628,2.3635,2.3625,2.3622,2.3628,2.3714,2.3716,2.3718,2.372,0,2.3394,2.3384,2.342,2.3455,2.3485,2.3511,2.3533,2.3558,2.3534,2.3567,2.3614,2.364,2.3692,2.3736,2.3771,2.3779,2.3747,2.3742,2.376,2.3769,2.3773,2.3773,2.3539,2.3737,2.3735,2.3734,2.3733,2.3732,2.3525,2.3568,2.3582,2.3624,2.3639,2.3661,2.3701,2.3699,2.3738,2.3777,2.3761,2.3816,2.3833,2.3877,2.389,2.3933,2.3904,2.3929,2.3936,2.3943,2.3952,2.3766,2.394,2.3939,2.3939,2.3938,2.3938,0,2.37,2.3707,2.3746,2.3779,2.3813,2.3778,2.3802,2.3833,2.3881,2.39,2.3933,2.3989,2.4031,2.4033,2.4073,2.4108,2.4094,2.4119,2.4116,2.4119,2.3975,2.3956,2.413,2.413,2.413,2.4129,2.4129,2.4129,2.3795,2.3867,2.386,2.3938,2.3945,2.3998,2.4014,2.4035,2.405,2.4113,2.4148,2.4149,2.4161,2.4202,2.4241,2.424,2.4257,2.4288,2.4282,2.4148,2.4129,2.4111,2.4093,2.4292,2.4292,2.4423,2.4424,2.4425]},{"header":{"parameterUnit":"m.s-1","parameterCategory":1,"la1":30.2991,"la2":30.254,"lo1":-89.0895,"lo2":-89.0444,"dy":0.0017,"dx":0.0017,"nx":28,"ny":28,"refTime":"2025-11-09T09:00:00:Z","depth":0,"parameterNumber":3,"parameterNumberName":"V-component_of_WINDS"},"data":[0,0,0,0,0,0,0,0,0,0,0,0,0,0,0,0,0,0,0,0,0,0,0,0,0,0,0,0,0,0,0,0,0,0,0,0,0,0,0,0,0,0,0,0,0,0,0,0,0,0,0,0,0,0,0,0,0,0,2.252,2.2522,0,2.2677,2.2678,2.268,2.2681,2.2679,2.2677,2.2676,2.2834,2.284,2.2846,0,0,0,0,0,0,0,0,0,0,0,0,0,2.2222,2.2227,2.252,2.2522,2.2524,2.2676,2.2678,2.268,2.2682,2.2679,2.2677,2.2675,2.2832,2.2839,2.2847,0,0,0,0,0,0,0,0,0,0,0,0,0,2.2362,2.2229,2.252,2.2543,2.2547,2.2676,2.2678,2.2681,2.2682,2.2679,2.2676,2.2673,2.283,2.2839,2.2848,2.2964,0,0,2.2875,2.2879,0,0,0,0,0,0,0,0,2.2354,2.2373,2.2538,2.2542,2.2546,2.2656,2.2631,2.2776,2.2683,2.2631,2.2675,2.2672,2.2777,2.2791,2.2826,2.2971,2.2978,2.2876,2.2882,2.2886,2.2888,0,0,0,0,0,0,0,2.2344,2.2366,2.2582,2.254,2.2545,2.2545,2.2562,2.2659,2.2719,2.2635,2.2636,2.2654,2.2779,2.2818,2.283,2.298,2.2876,2.2884,2.289,2.2893,2.3228,2.3231,0,0,0,0,0,0,2.233,2.2358,2.2577,2.2587,2.2441,2.2553,2.2572,2.2624,2.2718,2.2729,2.2656,2.2654,2.2803,2.2819,2.2836,2.2979,2.2886,2.2894,2.2899,2.3225,2.3229,2.3233,0,0,0,0,0,0,2.2324,2.235,2.2571,2.2473,2.2501,2.2561,2.262,2.2629,2.2667,2.2734,2.2745,2.2685,2.2802,2.2823,2.2932,2.2984,2.2898,2.2907,2.3221,2.3226,2.3231,2.3265,0,0,0,0,0,0,2.2315,2.2347,2.2392,2.2474,2.2506,2.2665,2.2623,2.2634,2.2683,2.2681,2.2764,2.2774,2.2801,2.2918,2.2941,2.2995,2.2914,2.3216,2.3223,2.3229,2.3259,2.327,2.328,0,0,0,0,0,2.2304,2.2395,2.2395,2.2421,2.2564,2.2668,2.2687,2.2716,2.2687,2.2733,2.2776,2.2772,2.2974,2.293,2.2955,2.3013,2.3213,2.3221,2.3229,2.3255,2.3268,2.328,0,0,0,0,0,0,2.2318,2.2406,2.2407,2.2526,2.259,2.2668,2.2727,2.2729,2.2802,2.2796,2.2829,2.2848,2.2957,2.2995,2.2944,2.313,2.309,2.3103,2.3101,2.3115,2.3125,2.3114,2.2921,0,0,0,0,0,2.2335,2.2413,2.2485,2.2584,2.2616,2.2666,2.2712,2.2729,2.2796,2.2823,2.2874,2.2938,2.3016,2.3067,2.3143,2.3264,2.3282,2.3316,2.3326,2.3334,2.3346,2.3414,2.343,2.3258,2.3258,2.3258,0,0,2.2371,2.2428,2.2476,2.2588,2.2639,2.2719,2.2688,2.2774,2.2833,2.2836,2.2943,2.2982,2.3056,2.3172,2.3225,2.3207,2.3397,2.3344,2.335,2.3358,2.3423,2.344,2.3454,2.3263,2.3262,2.3261,0,0,2.2477,2.2528,2.2617,2.2669,2.2747,2.2779,2.28,2.2878,2.2905,2.3012,2.3016,2.3087,2.3221,2.3274,2.3318,2.3444,2.3444,2.3468,2.3522,2.3588,2.3602,2.3614,2.366,2.3676,2.3479,2.3479,2.3479,0,2.2512,2.2633,2.2662,2.2748,2.2798,2.2803,2.2893,2.2942,2.304,2.3074,2.3052,2.3221,2.3271,2.34,2.3431,2.3466,2.3492,2.3459,2.3597,2.361,2.3622,2.3666,2.3683,2.3481,2.3481,2.3481,2.348,0,2.2672,2.2756,2.2817,2.2913,2.297,2.3057,2.3099,2.3152,2.3164,2.3199,2.3309,2.3369,2.3457,2.3489,2.3501,2.362,2.3606,2.359,2.3552,2.364,2.3683,2.37,2.3485,2.3484,2.3483,2.3483,0,0,2.2793,2.2903,2.2926,2.2969,2.3056,2.3121,2.3208,2.3295,2.3341,2.3408,2.3483,2.3595,2.3582,2.3632,2.365,2.3707,2.3805,2.3685,2.3687,2.3707,2.3941,2.3954,2.3973,2.3804,2.3808,2.381,2.3935,0,2.2909,2.3066,2.3095,2.3231,2.3309,2.3315,2.3392,2.3453,2.3487,2.3558,2.3596,2.3676,2.3651,2.3682,2.3739,2.3781,2.3853,2.3772,2.3875,2.3878,2.3858,2.3995,2.4008,2.4124,2.3952,2.3955,2.3957,0,2.3067,2.3139,2.3284,2.336,2.3394,2.3462,2.3544,2.3612,2.3681,2.3702,2.3758,2.377,2.3861,2.3816,2.3942,2.3887,2.393,2.3957,2.3962,2.3974,2.3924,2.4012,2.4161,2.4179,2.3983,2.3981,2.3979,0,2.3142,2.3275,2.3379,2.3416,2.3508,2.3556,2.3596,2.3662,2.3712,2.3784,2.3817,2.3898,2.3942,2.4004,2.4037,2.4001,2.4161,2.4119,2.4182,2.4181,2.4217,2.4214,2.4376,2.4241,2.4241,2.4241,2.424,0,2.3271,2.3359,2.3415,2.3479,2.3578,2.3609,2.3707,2.3746,2.3805,2.3876,2.3886,2.3953,2.3991,2.4064,2.409,2.4191,2.421,2.423,2.4236,2.4231,2.4228,2.4261,2.4254,2.4245,2.4244,2.4243,2.4243,0,2.3372,2.3413,2.3527,2.3604,2.3625,2.3695,2.3761,2.3824,2.3857,2.3948,2.3971,2.4025,2.4111,2.4149,2.4254,2.4272,2.4388,2.4387,2.4365,2.4368,2.4429,2.4423,2.4618,2.4646,2.4491,2.4493,2.4494,0,2.3453,2.3521,2.3606,2.3655,2.3696,2.3775,2.3827,2.386,2.3914,2.3997,2.405,2.4136,2.4207,2.4344,2.4392,2.4473,2.4476,2.4538,2.4488,2.448,2.4479,2.4475,2.4483,2.4548,2.455,2.4551,2.4552,0,2.3591,2.3608,2.3683,2.3765,2.3827,2.3893,2.3957,2.3997,2.404,2.4099,2.4188,2.4243,2.4351,2.4437,2.4521,2.4562,2.4565,2.4567,2.4586,2.4582,2.4567,2.4578,2.4392,2.4563,2.4562,2.4561,2.456,2.456,2.3686,2.3747,2.3817,2.39,2.3952,2.4012,2.4075,2.4117,2.4192,2.4283,2.4297,2.4392,2.4459,2.4573,2.4616,2.4691,2.4675,2.4703,2.471,2.4717,2.4721,2.4554,2.4706,2.4705,2.4705,2.4705,2.4705,0,2.3826,2.3871,2.3947,2.4038,2.4103,2.41,2.4171,2.4226,2.431,2.4372,2.4442,2.4544,2.4627,2.4682,2.4766,2.4815,2.4818,2.4836,2.4834,2.4843,2.4729,2.4705,2.4832,2.4832,2.4832,2.4832,2.4832,2.4832,2.3907,2.4012,2.4036,2.4167,2.4211,2.4304,2.4346,2.4401,2.4452,2.4565,2.4635,2.467,2.473,2.4818,2.4894,2.4908,2.4939,2.4958,2.4971,2.4864,2.4851,2.4838,2.4816,2.4964,2.4964,2.508,2.5081,2.5081]}]]